Retour au catalogue

STARLINK-31951

ActifCommunicationsVLEO
NORAD 59890·PAYLOAD·🇺🇸 United States

Lancé May 28, 2024 depuis Cape Canaveral Space Force Station

Loading…

Prochains Passages (prochaines 24 heures)

TLE

FraisSource: CelesTrak SupGP

Époque: Sep 14, 2026, 21:32 UTC

1 59890C 24100F   26257.89770833 -.00056759  00000+0 -20561-2 0  2571
2 59890  42.9992 136.6468 0001485 265.4413 184.9357 15.27601687    16

Suivez STARLINK-31951 en temps réel avec AllMySat

Download on the App Store